When you browse on this site, cookies collect data to enhance your experience and personalize the content and advertising you see.
Visit our Privacy Policy to learn more. By continuing to use the site, you agree to this use of cookies and data.
  • En España
  • Lista de países
  • Para 7 días
  • Temperatura del agua
  • El tiempo en el mapa
  • Informadores
  • user-avatar
    Iniciar sesión

    Tiempo cada hora Zbarazh

    Hoy, 29 Mayo, Viernes

    Tiempo Temperatura Precipitaciones Viento Presión Humedad
    00:00 +9°C° 0.1 mm 2 mps 727 mmHg 94%
    01:00 +9°C° 0.1 mm 2 mps 727 mmHg 95%
    02:00 +8°C° 0 mm 2 mps 727 mmHg 96%
    03:00 +8°C° 0 mm 2 mps 727 mmHg 96%
    04:00 +8°C° 0 mm 2 mps 727 mmHg 96%
    05:00 +8°C° 0 mm 2 mps 727 mmHg 96%
    06:00 +9°C° 0.1 mm 3 mps 727 mmHg 95%
    07:00 +10°C° 0.1 mm 4 mps 727 mmHg 94%
    08:00 +10°C° 0.1 mm 4 mps 727 mmHg 93%
    09:00 +10°C° 0.2 mm 5 mps 727 mmHg 91%
    10:00 +10°C° 0.2 mm 6 mps 727 mmHg 89%
    11:00 +11°C° 0.2 mm 7 mps 727 mmHg 87%
    12:00 +11°C° 0.7 mm 7 mps 727 mmHg 87%
    13:00 +11°C° 0.7 mm 7 mps 727 mmHg 87%
    14:00 +11°C° 0.7 mm 7 mps 726 mmHg 87%
    15:00 +10°C° 0.5 mm 6 mps 726 mmHg 88%
    16:00 +10°C° 0.5 mm 6 mps 726 mmHg 89%
    17:00 +10°C° 0.5 mm 5 mps 726 mmHg 90%
    18:00 +9°C° 0.2 mm 6 mps 726 mmHg 91%
    19:00 +9°C° 0.2 mm 6 mps 726 mmHg 93%
    20:00 +9°C° 0.2 mm 6 mps 726 mmHg 94%
    21:00 +9°C° 0.1 mm 6 mps 725 mmHg 94%
    22:00 +8°C° 0.1 mm 6 mps 725 mmHg 94%
    23:00 +8°C° 0.1 mm 5 mps 725 mmHg 93%

    Mañana, 30 Mayo, Sábado

    Tiempo Temperatura Precipitaciones Viento Presión Humedad
    00:00 +8°C° 0.1 mm 6 mps 725 mmHg 94%
    01:00 +8°C° 0.1 mm 6 mps 724 mmHg 94%
    02:00 +8°C° 0.1 mm 6 mps 724 mmHg 95%
    03:00 +8°C° 0.7 mm 6 mps 724 mmHg 95%
    04:00 +8°C° 0.7 mm 7 mps 724 mmHg 96%
    05:00 +8°C° 0.7 mm 7 mps 723 mmHg 96%
    06:00 +8°C° 2.1 mm 7 mps 723 mmHg 96%
    07:00 +8°C° 2.1 mm 7 mps 723 mmHg 96%
    08:00 +8°C° 2.1 mm 7 mps 723 mmHg 96%
    09:00 +8°C° 1.1 mm 7 mps 723 mmHg 95%
    10:00 +7°C° 1.1 mm 8 mps 723 mmHg 95%
    11:00 +7°C° 1.1 mm 8 mps 722 mmHg 95%
    12:00 +7°C° 0.8 mm 8 mps 722 mmHg 95%
    13:00 +7°C° 0.8 mm 8 mps 722 mmHg 95%
    14:00 +7°C° 0.8 mm 8 mps 722 mmHg 94%
    15:00 +6°C° 0.7 mm 8 mps 722 mmHg 94%
    16:00 +6°C° 0.7 mm 8 mps 722 mmHg 95%
    17:00 +6°C° 0.7 mm 8 mps 721 mmHg 95%
    18:00 +6°C° 0.1 mm 8 mps 721 mmHg 95%
    19:00 +6°C° 0.1 mm 8 mps 721 mmHg 95%
    20:00 +6°C° 0.1 mm 8 mps 720 mmHg 96%
    21:00 +7°C° 0.1 mm 8 mps 720 mmHg 96%
    22:00 +8°C° 0.1 mm 7 mps 719 mmHg 96%
    23:00 +8°C° 0.1 mm 7 mps 719 mmHg 96%

    Pasado mañana, 31 Mayo, Domingo

    Tiempo Temperatura Precipitaciones Viento Presión Humedad
    00:00 +8°C° 1 mm 7 mps 718 mmHg 96%
    01:00 +8°C° 1 mm 7 mps 717 mmHg 96%
    02:00 +9°C° 1 mm 7 mps 717 mmHg 96%
    03:00 +9°C° 2.1 mm 8 mps 716 mmHg 96%
    04:00 +9°C° 2.1 mm 8 mps 716 mmHg 96%
    05:00 +9°C° 2.1 mm 8 mps 716 mmHg 96%
    06:00 +9°C° 2 mm 8 mps 716 mmHg 95%
    07:00 +7°C° 2 mm 8 mps 716 mmHg 95%
    08:00 +7°C° 2 mm 8 mps 716 mmHg 95%
    09:00 +8°C° 1.1 mm 7 mps 717 mmHg 95%
    10:00 +8°C° 1.1 mm 7 mps 717 mmHg 95%
    11:00 +8°C° 1.1 mm 6 mps 718 mmHg 95%
    12:00 +9°C° 0.3 mm 6 mps 719 mmHg 93%
    13:00 +9°C° 0.3 mm 6 mps 719 mmHg 91%
    14:00 +9°C° 0.3 mm 6 mps 720 mmHg 90%
    15:00 +9°C° 0 mm 5 mps 720 mmHg 88%
    16:00 +10°C° 0 mm 5 mps 721 mmHg 86%
    17:00 +11°C° 0 mm 4 mps 721 mmHg 84%
    18:00 +11°C° 0 mm 3 mps 721 mmHg 87%
    19:00 +10°C° 0 mm 3 mps 722 mmHg 89%
    20:00 +10°C° 0 mm 2 mps 722 mmHg 92%
    21:00 +9°C° 0 mm 2 mps 723 mmHg 93%
    22:00 +8°C° 0 mm 2 mps 723 mmHg 94%
    23:00 +7°C° 0 mm 2 mps 723 mmHg 95%

    1 Junio, Lunes

    Tiempo Temperatura Precipitaciones Viento Presión Humedad
    00:00 +7°C° 0 mm 2 mps 724 mmHg 95%
    01:00 +7°C° 0 mm 2 mps 724 mmHg 95%
    02:00 +6°C° 0 mm 2 mps 724 mmHg 95%
    03:00 +6°C° 0 mm 2 mps 724 mmHg 95%
    04:00 +6°C° 0 mm 2 mps 724 mmHg 94%
    05:00 +6°C° 0 mm 2 mps 725 mmHg 94%
    06:00 +8°C° 0 mm 2 mps 725 mmHg 91%
    07:00 +10°C° 0 mm 3 mps 726 mmHg 88%
    08:00 +12°C° 0 mm 3 mps 726 mmHg 85%
    09:00 +12°C° 0.2 mm 4 mps 727 mmHg 86%
    10:00 +13°C° 0.2 mm 5 mps 727 mmHg 86%
    11:00 +13°C° 0.2 mm 6 mps 728 mmHg 87%
    12:00 +13°C° 0.2 mm 6 mps 727 mmHg 87%
    13:00 +11°C° 0.2 mm 6 mps 727 mmHg 87%
    14:00 +11°C° 0.2 mm 6 mps 727 mmHg 87%
    15:00 +13°C° 0.1 mm 6 mps 728 mmHg 83%
    16:00 +13°C° 0.1 mm 6 mps 728 mmHg 80%
    17:00 +14°C° 0.1 mm 5 mps 728 mmHg 77%
    18:00 +13°C° 0.1 mm 5 mps 728 mmHg 81%
    19:00 +11°C° 0.1 mm 4 mps 728 mmHg 84%
    20:00 +10°C° 0.1 mm 3 mps 729 mmHg 88%
    21:00 +9°C° 0 mm 3 mps 729 mmHg 88%
    22:00 +8°C° 0 mm 3 mps 729 mmHg 89%
    23:00 +7°C° 0 mm 3 mps 729 mmHg 89%

    2 Junio, Martes

    Tiempo Temperatura Precipitaciones Viento Presión Humedad
    00:00 +7°C° 0 mm 3 mps 729 mmHg 91%
    01:00 +5°C° 0 mm 3 mps 729 mmHg 92%
    02:00 +4°C° 0 mm 3 mps 729 mmHg 93%
    03:00 +4°C° 0 mm 3 mps 729 mmHg 93%
    04:00 +3°C° 0 mm 3 mps 729 mmHg 93%
    05:00 +3°C° 0 mm 3 mps 729 mmHg 94%
    06:00 +5°C° 0 mm 3 mps 729 mmHg 88%
    07:00 +8°C° 0 mm 3 mps 729 mmHg 83%
    08:00 +8°C° 0 mm 4 mps 730 mmHg 78%
    09:00 +10°C° 0.1 mm 4 mps 730 mmHg 73%
    10:00 +11°C° 0.1 mm 4 mps 730 mmHg 69%
    11:00 +12°C° 0.1 mm 4 mps 730 mmHg 64%
    12:00 +12°C° 0.1 mm 4 mps 729 mmHg 64%
    13:00 +13°C° 0.1 mm 3 mps 729 mmHg 63%
    14:00 +13°C° 0.1 mm 3 mps 729 mmHg 62%
    15:00 +13°C° 0.2 mm 3 mps 729 mmHg 66%
    16:00 +12°C° 0.2 mm 3 mps 728 mmHg 70%
    17:00 +12°C° 0.2 mm 3 mps 728 mmHg 74%
    18:00 +12°C° 0.1 mm 2 mps 728 mmHg 77%
    19:00 +10°C° 0.1 mm 2 mps 728 mmHg 80%
    20:00 +9°C° 0.1 mm 2 mps 728 mmHg 84%
    21:00 +9°C° 0 mm 1 mps 728 mmHg 84%
    22:00 +8°C° 0 mm 1 mps 728 mmHg 85%
    23:00 +7°C° 0 mm 1 mps 728 mmHg 86%

    3 Junio, Miércoles

    Tiempo Temperatura Precipitaciones Viento Presión Humedad
    00:00 +7°C° 0 mm 1 mps 728 mmHg 86%
    01:00 +5°C° 0 mm 0 mps 728 mmHg 86%
    02:00 +5°C° 0 mm 0 mps 728 mmHg 86%
    03:00 +5°C° 0 mm 0 mps 728 mmHg 86%
    04:00 +6°C° 0 mm 1 mps 727 mmHg 85%
    05:00 +6°C° 0 mm 1 mps 727 mmHg 85%
    06:00 +8°C° 0 mm 1 mps 728 mmHg 81%
    07:00 +10°C° 0 mm 1 mps 728 mmHg 76%
    08:00 +12°C° 0 mm 1 mps 728 mmHg 72%
    09:00 +13°C° 0.1 mm 2 mps 728 mmHg 67%
    10:00 +14°C° 0.1 mm 2 mps 728 mmHg 63%
    11:00 +15°C° 0.1 mm 2 mps 728 mmHg 58%
    12:00 +15°C° 0.1 mm 2 mps 728 mmHg 57%
    13:00 +16°C° 0.1 mm 2 mps 727 mmHg 56%
    14:00 +16°C° 0.1 mm 2 mps 727 mmHg 54%
    15:00 +16°C° 0.1 mm 2 mps 727 mmHg 57%
    16:00 +16°C° 0.1 mm 2 mps 727 mmHg 59%
    17:00 +16°C° 0.1 mm 2 mps 727 mmHg 61%
    18:00 +14°C° 0.1 mm 2 mps 726 mmHg 68%
    19:00 +13°C° 0.1 mm 2 mps 726 mmHg 76%
    20:00 +10°C° 0.1 mm 2 mps 726 mmHg 83%
    21:00 +10°C° 0 mm 1 mps 726 mmHg 84%
    22:00 +9°C° 0 mm 1 mps 726 mmHg 86%
    23:00 +9°C° 0 mm 1 mps 727 mmHg 87%
    Mostrar más